{"data":{"norad_id":53988,"epoch":"2026-09-20T16:28:51.627360Z","epoch_age_seconds":70871,"freshness":"FRESH","line1":"1 53988U 22125AA  26263.68670865  .00000275  00000+0  19268-4 0  9993","line2":"2 53988  53.1619  50.8517 0001078  87.3758 272.7368 15.34390912218991","mean_motion":15.34390912,"eccentricity":0.0001078,"inclination_deg":53.1619,"raan_deg":50.8517,"arg_perigee_deg":87.3758,"mean_anomaly_deg":272.7368,"bstar":1.9268e-5,"rev_number":21899,"period_min":93.848313929534,"perigee_km":461.99280630189,"apogee_km":463.46769728138,"semimajor_km":6840.8672517916,"source":"CELESTRAK","updated_at":"2026-09-21T09:00:33.044122Z"}}